Year,Month,Day,Hour,Minute,Value (Times are PST for temperature in C)
2011,03,02,00,00,2.20
2011,03,02,00,01,2.20
2011,03,02,00,02,2.20
2011,03,02,00,03,2.20
2011,03,02,00,04,2.20
2011,03,02,00,05,2.20
2011,03,02,00,06,2.10
2011,03,02,00,07,2.10
2011,03,02,00,08,2.10
2011,03,02,00,09,2.10
2011,03,02,00,10,2.10
2011,03,02,00,11,2.10
2011,03,02,00,12,2.10
2011,03,02,00,13,2.00
2011,03,02,00,14,2.00
2011,03,02,00,15,2.00
2011,03,02,00,16,2.00
2011,03,02,00,17,2.00
2011,03,02,00,18,2.00
2011,03,02,00,19,2.00
2011,03,02,00,20,2.00
2011,03,02,00,21,2.00
2011,03,02,00,22,2.00
2011,03,02,00,23,2.00
2011,03,02,00,24,2.00
2011,03,02,00,25,2.00
2011,03,02,00,26,2.00
2011,03,02,00,27,2.00
2011,03,02,00,28,1.90
2011,03,02,00,29,1.90
2011,03,02,00,30,1.90
2011,03,02,00,31,1.90
2011,03,02,00,32,1.90
2011,03,02,00,33,1.90
2011,03,02,00,34,1.90
2011,03,02,00,35,1.90
2011,03,02,00,36,1.80
2011,03,02,00,37,1.80
2011,03,02,00,38,1.80
2011,03,02,00,39,1.80
2011,03,02,00,40,1.80
2011,03,02,00,41,1.80
2011,03,02,00,42,1.80
2011,03,02,00,43,1.80
2011,03,02,00,44,1.80
2011,03,02,00,45,1.80
2011,03,02,00,46,1.80
2011,03,02,00,47,1.80
2011,03,02,00,48,1.80
2011,03,02,00,49,1.80
2011,03,02,00,50,1.80
2011,03,02,00,51,1.80
2011,03,02,00,52,1.80
2011,03,02,00,53,1.80
2011,03,02,00,54,1.90
2011,03,02,00,55,1.90
2011,03,02,00,56,1.90
2011,03,02,00,57,1.90
2011,03,02,00,58,1.90
2011,03,02,00,59,1.90
2011,03,02,01,00,1.90
2011,03,02,01,01,1.90
2011,03,02,01,02,1.90
2011,03,02,01,03,1.90
2011,03,02,01,04,1.90
2011,03,02,01,05,1.80
2011,03,02,01,06,1.80
2011,03,02,01,07,1.80
2011,03,02,01,08,1.80
2011,03,02,01,09,1.80
2011,03,02,01,10,1.80
2011,03,02,01,11,1.80
2011,03,02,01,12,1.80
2011,03,02,01,13,1.80
2011,03,02,01,14,1.80
2011,03,02,01,15,1.80
2011,03,02,01,16,1.80
2011,03,02,01,17,1.80
2011,03,02,01,18,1.90
2011,03,02,01,19,1.90
2011,03,02,01,20,1.80
2011,03,02,01,21,1.80
2011,03,02,01,22,1.80
2011,03,02,01,23,1.80
2011,03,02,01,24,1.80
2011,03,02,01,25,1.80
2011,03,02,01,26,1.80
2011,03,02,01,27,1.80
2011,03,02,01,28,1.80
2011,03,02,01,29,1.80
2011,03,02,01,30,1.80
2011,03,02,01,31,1.80
2011,03,02,01,32,1.80
2011,03,02,01,33,1.80
2011,03,02,01,34,1.80
2011,03,02,01,35,1.80
2011,03,02,01,36,1.80
2011,03,02,01,37,1.80
2011,03,02,01,38,1.80
2011,03,02,01,39,1.80
2011,03,02,01,40,1.80
2011,03,02,01,41,1.80
2011,03,02,01,42,1.80
2011,03,02,01,43,1.80
2011,03,02,01,44,1.80
2011,03,02,01,45,1.80
2011,03,02,01,46,1.80
2011,03,02,01,47,1.80
2011,03,02,01,48,1.80
2011,03,02,01,49,1.80
2011,03,02,01,50,1.80
2011,03,02,01,51,1.80
2011,03,02,01,52,1.80
2011,03,02,01,53,1.80
2011,03,02,01,54,1.80
2011,03,02,01,55,1.80
2011,03,02,01,56,1.80
2011,03,02,01,57,1.80
2011,03,02,01,58,1.80
2011,03,02,01,59,1.80
2011,03,02,02,00,1.80
2011,03,02,02,01,1.80
2011,03,02,02,02,1.80
2011,03,02,02,03,1.80
2011,03,02,02,04,1.80
2011,03,02,02,05,1.90
2011,03,02,02,06,2.00
2011,03,02,02,07,2.00
2011,03,02,02,08,2.00
2011,03,02,02,09,2.00
2011,03,02,02,10,2.00
2011,03,02,02,11,2.00
2011,03,02,02,12,2.00
2011,03,02,02,13,2.00
2011,03,02,02,14,2.00
2011,03,02,02,15,2.00
2011,03,02,02,16,2.00
2011,03,02,02,17,2.00
2011,03,02,02,18,2.00
2011,03,02,02,19,2.00
2011,03,02,02,20,2.00
2011,03,02,02,21,2.00
2011,03,02,02,22,2.00
2011,03,02,02,23,2.00
2011,03,02,02,24,2.00
2011,03,02,02,25,2.00
2011,03,02,02,26,2.00
2011,03,02,02,27,2.10
2011,03,02,02,28,2.10
2011,03,02,02,29,2.10
2011,03,02,02,30,2.10
2011,03,02,02,31,2.10
2011,03,02,02,32,2.10
2011,03,02,02,33,2.10
2011,03,02,02,34,2.10
2011,03,02,02,35,2.10
2011,03,02,02,36,2.10
2011,03,02,02,37,2.10
2011,03,02,02,38,2.10
2011,03,02,02,39,2.10
2011,03,02,02,40,2.10
2011,03,02,02,41,2.00
2011,03,02,02,42,2.00
2011,03,02,02,43,2.00
2011,03,02,02,44,2.00
2011,03,02,02,45,2.00
2011,03,02,02,46,2.00
2011,03,02,02,47,2.00
2011,03,02,02,48,2.00
2011,03,02,02,49,2.00
2011,03,02,02,50,2.00
2011,03,02,02,51,2.00
2011,03,02,02,52,2.00
2011,03,02,02,53,2.00
2011,03,02,02,54,2.00
2011,03,02,02,55,2.00
2011,03,02,02,56,2.00
2011,03,02,02,57,2.00
2011,03,02,02,58,2.00
2011,03,02,02,59,2.00
2011,03,02,03,00,2.00
2011,03,02,03,01,2.00
2011,03,02,03,02,2.00
2011,03,02,03,03,1.90
2011,03,02,03,04,1.90
2011,03,02,03,05,1.90
2011,03,02,03,06,1.90
2011,03,02,03,07,1.90
2011,03,02,03,08,2.00
2011,03,02,03,09,2.00
2011,03,02,03,10,2.00
2011,03,02,03,11,2.00
2011,03,02,03,12,2.00
2011,03,02,03,13,2.00
2011,03,02,03,14,2.00
2011,03,02,03,15,2.00
2011,03,02,03,16,2.00
2011,03,02,03,17,2.00
2011,03,02,03,18,2.10
2011,03,02,03,19,2.10
2011,03,02,03,20,2.10
2011,03,02,03,21,2.10
2011,03,02,03,22,2.10
2011,03,02,03,23,2.10
2011,03,02,03,24,2.20
2011,03,02,03,25,2.20
2011,03,02,03,26,2.20
2011,03,02,03,27,2.20
2011,03,02,03,28,2.20
2011,03,02,03,29,2.20
2011,03,02,03,30,2.20
2011,03,02,03,31,2.20
2011,03,02,03,32,2.20
2011,03,02,03,33,2.20
2011,03,02,03,34,2.20
2011,03,02,03,35,2.20
2011,03,02,03,36,2.20
2011,03,02,03,37,2.20
2011,03,02,03,38,2.20
2011,03,02,03,39,2.20
2011,03,02,03,40,2.20
2011,03,02,03,41,2.20
2011,03,02,03,42,2.20
2011,03,02,03,43,2.20
2011,03,02,03,44,2.20
2011,03,02,03,45,2.20
2011,03,02,03,46,2.20
2011,03,02,03,47,2.20
2011,03,02,03,48,2.20
2011,03,02,03,49,2.20
2011,03,02,03,50,2.20
2011,03,02,03,51,2.10
2011,03,02,03,52,2.10
2011,03,02,03,53,2.10
2011,03,02,03,54,2.10
2011,03,02,03,55,2.10
2011,03,02,03,56,2.10
2011,03,02,03,57,2.10
2011,03,02,03,58,2.10
2011,03,02,03,59,2.10
2011,03,02,04,00,2.20
2011,03,02,04,01,2.20
2011,03,02,04,02,2.20
2011,03,02,04,03,2.20
2011,03,02,04,04,2.20
2011,03,02,04,05,2.20
2011,03,02,04,06,2.20
2011,03,02,04,07,2.20
2011,03,02,04,08,2.30
2011,03,02,04,09,2.30
2011,03,02,04,10,2.30
2011,03,02,04,11,2.40
2011,03,02,04,12,2.50
2011,03,02,04,13,2.60
2011,03,02,04,14,2.70
2011,03,02,04,15,2.70
2011,03,02,04,16,2.80
2011,03,02,04,17,2.90
2011,03,02,04,18,3.10
2011,03,02,04,19,3.20
2011,03,02,04,20,3.40
2011,03,02,04,21,3.50
2011,03,02,04,22,3.70
2011,03,02,04,23,3.80
2011,03,02,04,24,4.00
2011,03,02,04,25,4.10
2011,03,02,04,26,4.20
2011,03,02,04,27,4.30
2011,03,02,04,28,4.40
2011,03,02,04,29,4.40
2011,03,02,04,30,4.50
2011,03,02,04,31,4.60
2011,03,02,04,32,4.60
2011,03,02,04,33,4.60
2011,03,02,04,34,4.60
2011,03,02,04,35,4.60
2011,03,02,04,36,4.70
2011,03,02,04,37,4.70
2011,03,02,04,38,4.80
2011,03,02,04,39,4.80
2011,03,02,04,40,4.80
2011,03,02,04,41,4.80
2011,03,02,04,42,4.80
2011,03,02,04,43,4.80
2011,03,02,04,44,4.80
2011,03,02,04,45,4.80
2011,03,02,04,46,4.80
2011,03,02,04,47,4.80
2011,03,02,04,48,4.80
2011,03,02,04,49,4.90
2011,03,02,04,50,4.90
2011,03,02,04,51,4.90
2011,03,02,04,52,4.90
2011,03,02,04,53,4.90
2011,03,02,04,54,5.00
2011,03,02,04,55,5.10
2011,03,02,04,56,5.10
2011,03,02,04,57,5.10
2011,03,02,04,58,5.10
2011,03,02,04,59,5.10
2011,03,02,05,00,5.10
2011,03,02,05,01,5.20
2011,03,02,05,02,5.10
2011,03,02,05,03,5.10
2011,03,02,05,04,5.20
2011,03,02,05,05,5.20
2011,03,02,05,06,5.20
2011,03,02,05,07,5.10
2011,03,02,05,08,5.10
2011,03,02,05,09,5.10
2011,03,02,05,10,5.20
2011,03,02,05,11,5.20
2011,03,02,05,12,5.20
2011,03,02,05,13,5.20
2011,03,02,05,14,5.20
2011,03,02,05,15,5.20
2011,03,02,05,16,5.20
2011,03,02,05,17,5.20
2011,03,02,05,18,5.20
2011,03,02,05,19,5.20
2011,03,02,05,20,5.10
2011,03,02,05,21,5.10
2011,03,02,05,22,5.10
2011,03,02,05,23,5.10
2011,03,02,05,24,5.10
2011,03,02,05,25,5.10
2011,03,02,05,26,5.10
2011,03,02,05,27,5.10
2011,03,02,05,28,5.10
2011,03,02,05,29,5.10
2011,03,02,05,30,5.10
2011,03,02,05,31,5.10
2011,03,02,05,32,5.10
2011,03,02,05,33,5.10
2011,03,02,05,34,5.20
2011,03,02,05,35,5.20
2011,03,02,05,36,5.20
2011,03,02,05,37,5.20
2011,03,02,05,38,5.20
2011,03,02,05,39,5.20
2011,03,02,05,40,5.20
2011,03,02,05,41,5.30
2011,03,02,05,42,5.30
2011,03,02,05,43,5.30
2011,03,02,05,44,5.30
2011,03,02,05,45,5.30
2011,03,02,05,46,5.30
2011,03,02,05,47,5.30
2011,03,02,05,48,5.30
2011,03,02,05,49,5.30
2011,03,02,05,50,5.30
2011,03,02,05,51,5.30
2011,03,02,05,52,5.30
2011,03,02,05,53,5.30
2011,03,02,05,54,5.20
2011,03,02,05,55,5.20
2011,03,02,05,56,5.20
2011,03,02,05,57,5.20
2011,03,02,05,58,5.20
2011,03,02,05,59,5.20
2011,03,02,06,00,5.20
2011,03,02,06,01,5.20
2011,03,02,06,02,5.20
2011,03,02,06,03,5.20
2011,03,02,06,04,5.20
2011,03,02,06,05,5.20
2011,03,02,06,06,5.20
2011,03,02,06,07,5.20
2011,03,02,06,08,5.20
2011,03,02,06,09,5.20
2011,03,02,06,10,5.20
2011,03,02,06,11,5.20
2011,03,02,06,12,5.20
2011,03,02,06,13,5.20
2011,03,02,06,14,5.20
2011,03,02,06,15,5.20
2011,03,02,06,16,5.10
2011,03,02,06,17,5.10
2011,03,02,06,18,5.10
2011,03,02,06,19,5.10
2011,03,02,06,20,5.10
2011,03,02,06,21,5.10
2011,03,02,06,22,5.10
2011,03,02,06,23,5.10
2011,03,02,06,24,5.10
2011,03,02,06,25,5.10
2011,03,02,06,26,5.10
2011,03,02,06,27,5.10
2011,03,02,06,28,5.20
2011,03,02,06,29,5.20
2011,03,02,06,30,5.20
2011,03,02,06,31,5.20
2011,03,02,06,32,5.20
2011,03,02,06,33,5.20
2011,03,02,06,34,5.20
2011,03,02,06,35,5.20
2011,03,02,06,36,5.20
2011,03,02,06,37,5.20
2011,03,02,06,38,5.20
2011,03,02,09,10,5.70
2011,03,02,09,11,5.70
2011,03,02,09,12,5.80
2011,03,02,09,13,5.80
2011,03,02,09,14,5.80
2011,03,02,09,15,5.90
2011,03,02,09,16,5.90
2011,03,02,09,17,6.00
2011,03,02,09,18,6.10
2011,03,02,09,19,6.10
2011,03,02,09,20,6.10
2011,03,02,09,21,6.10
2011,03,02,09,22,6.20
2011,03,02,09,23,6.10
2011,03,02,09,24,6.10
2011,03,02,09,25,6.10
2011,03,02,09,26,6.10
2011,03,02,09,27,6.10
2011,03,02,09,28,6.10
2011,03,02,09,29,6.00
2011,03,02,09,30,6.00
2011,03,02,09,31,6.00
2011,03,02,09,32,6.00
2011,03,02,09,33,6.10
2011,03,02,09,34,6.10
2011,03,02,09,35,6.10
2011,03,02,09,36,6.00
2011,03,02,09,37,6.00
2011,03,02,09,38,6.10
2011,03,02,09,39,6.10
2011,03,02,09,40,6.20
2011,03,02,09,41,6.20
2011,03,02,09,42,6.20
2011,03,02,09,43,6.20
2011,03,02,09,44,6.20
2011,03,02,09,45,6.30
2011,03,02,09,46,6.30
2011,03,02,09,47,6.20
2011,03,02,09,48,6.20
2011,03,02,09,49,6.20
2011,03,02,09,50,6.20
2011,03,02,09,51,6.20
2011,03,02,09,52,6.20
2011,03,02,09,53,6.20
2011,03,02,09,54,6.20
2011,03,02,09,55,6.20
2011,03,02,09,56,6.30
2011,03,02,09,57,6.30
2011,03,02,09,58,6.40
2011,03,02,09,59,6.40
2011,03,02,10,00,6.40
2011,03,02,10,01,6.50
2011,03,02,10,02,6.50
2011,03,02,10,03,6.60
2011,03,02,10,04,6.60
2011,03,02,10,05,6.60
2011,03,02,10,06,6.70
2011,03,02,10,07,6.70
2011,03,02,10,08,6.70
2011,03,02,10,09,6.80
2011,03,02,10,10,6.80
2011,03,02,10,11,6.80
2011,03,02,10,12,6.90
2011,03,02,10,13,6.90
2011,03,02,10,14,7.00
2011,03,02,10,15,7.00
2011,03,02,10,16,7.10
2011,03,02,10,17,7.10
2011,03,02,10,18,7.00
2011,03,02,10,19,7.00
2011,03,02,10,20,7.00
2011,03,02,10,21,7.00
2011,03,02,10,22,6.90
2011,03,02,10,23,6.90
2011,03,02,10,24,6.80
2011,03,02,10,25,6.70
2011,03,02,10,26,6.60
2011,03,02,10,27,6.50
2011,03,02,10,28,6.40
2011,03,02,10,29,6.40
2011,03,02,10,30,6.40
2011,03,02,10,31,6.40
2011,03,02,10,32,6.40
2011,03,02,10,33,6.30
2011,03,02,10,34,6.30
2011,03,02,10,35,6.20
2011,03,02,10,36,6.20
2011,03,02,10,37,6.20
2011,03,02,10,38,6.20
2011,03,02,10,39,6.20
2011,03,02,10,40,6.20
2011,03,02,10,41,6.20
2011,03,02,10,42,6.10
2011,03,02,10,43,6.10
2011,03,02,10,44,6.00
2011,03,02,10,45,6.00
2011,03,02,10,46,5.90
2011,03,02,10,47,5.90
2011,03,02,10,48,5.80
2011,03,02,10,49,5.80
2011,03,02,10,50,5.80
2011,03,02,10,51,5.80
2011,03,02,10,52,5.70
2011,03,02,10,53,5.70
2011,03,02,10,54,5.70
2011,03,02,10,55,5.70
2011,03,02,10,56,5.70
2011,03,02,10,57,5.70
2011,03,02,10,58,5.70
2011,03,02,10,59,5.70
2011,03,02,11,00,5.80
2011,03,02,11,01,5.80
2011,03,02,11,02,5.90
2011,03,02,11,03,5.90
2011,03,02,11,04,6.00
2011,03,02,11,05,6.00
2011,03,02,11,06,6.00
2011,03,02,11,07,6.00
2011,03,02,11,08,6.00
2011,03,02,11,09,6.00
2011,03,02,11,10,6.10
2011,03,02,11,11,6.10
2011,03,02,11,12,6.20
2011,03,02,11,13,6.20
2011,03,02,11,14,6.30
2011,03,02,11,15,6.30
2011,03,02,11,16,6.40
2011,03,02,11,17,6.40
2011,03,02,11,18,6.40
2011,03,02,11,19,6.40
2011,03,02,11,20,6.40
2011,03,02,11,21,6.40
2011,03,02,11,22,6.40
2011,03,02,11,23,6.40
2011,03,02,11,24,6.40
2011,03,02,11,25,6.30
2011,03,02,11,26,6.30
2011,03,02,11,27,6.30
2011,03,02,11,28,6.30
2011,03,02,11,29,6.20
2011,03,02,11,30,6.20
2011,03,02,11,31,6.20
2011,03,02,11,32,6.20
2011,03,02,11,33,6.20
2011,03,02,11,34,6.10
2011,03,02,11,35,6.00
2011,03,02,11,36,6.00
2011,03,02,11,37,6.00
2011,03,02,11,38,6.00
2011,03,02,11,39,6.00
2011,03,02,11,40,6.00
2011,03,02,11,41,6.00
2011,03,02,11,42,5.90
2011,03,02,11,43,5.90
2011,03,02,11,44,5.80
2011,03,02,11,45,5.80
2011,03,02,11,46,5.70
2011,03,02,11,47,5.70
2011,03,02,11,48,5.70
2011,03,02,11,49,5.60
2011,03,02,11,50,5.60
2011,03,02,11,51,5.60
2011,03,02,11,52,5.50
2011,03,02,11,53,5.50
2011,03,02,11,54,5.60
2011,03,02,11,55,5.60
2011,03,02,11,56,5.60
2011,03,02,11,57,5.70
2011,03,02,11,58,5.70
2011,03,02,11,59,5.70
2011,03,02,12,00,5.80
2011,03,02,12,01,5.80
2011,03,02,12,02,5.80
2011,03,02,12,03,5.90
2011,03,02,12,04,5.90
2011,03,02,12,05,5.90
2011,03,02,12,06,5.90
2011,03,02,12,07,5.80
2011,03,02,12,08,5.70
2011,03,02,12,09,5.70
2011,03,02,12,10,5.70
2011,03,02,12,11,5.70
2011,03,02,12,12,5.70
2011,03,02,12,13,5.70
2011,03,02,12,14,5.60
2011,03,02,12,15,5.50
2011,03,02,12,16,5.50
2011,03,02,12,17,5.50
2011,03,02,12,18,5.50
2011,03,02,12,19,5.60
2011,03,02,12,20,5.60
2011,03,02,12,21,5.70
2011,03,02,12,22,5.70
2011,03,02,12,23,5.70
2011,03,02,12,24,5.80
2011,03,02,12,25,5.80
2011,03,02,12,26,5.90
2011,03,02,12,27,5.90
2011,03,02,12,28,6.00
2011,03,02,12,29,6.00
2011,03,02,12,30,6.00
2011,03,02,12,31,6.00
2011,03,02,12,32,6.10
2011,03,02,12,33,6.10
2011,03,02,12,34,6.00
2011,03,02,12,35,6.00
2011,03,02,12,36,6.00
2011,03,02,12,37,6.00
2011,03,02,12,38,5.90
2011,03,02,12,39,5.80
2011,03,02,12,40,5.80
2011,03,02,12,41,5.70
2011,03,02,12,42,5.70
2011,03,02,12,43,5.60
2011,03,02,12,44,5.60
2011,03,02,12,45,5.60
2011,03,02,12,46,5.50
2011,03,02,12,47,5.50
2011,03,02,12,48,5.40
2011,03,02,12,49,5.40
2011,03,02,12,50,5.30
2011,03,02,12,51,5.30
2011,03,02,12,52,5.30
2011,03,02,12,53,5.40
2011,03,02,12,54,5.40
2011,03,02,12,55,5.50
2011,03,02,12,56,5.50
2011,03,02,12,57,5.60
2011,03,02,12,58,5.70
2011,03,02,12,59,5.80
2011,03,02,13,00,5.90
2011,03,02,13,01,6.00
2011,03,02,13,02,6.00
2011,03,02,13,03,6.10
2011,03,02,13,04,6.10
2011,03,02,13,05,6.10
2011,03,02,13,06,6.20
2011,03,02,13,07,6.20
2011,03,02,13,08,6.20
2011,03,02,13,09,6.30
2011,03,02,13,10,6.30
2011,03,02,13,11,6.40
2011,03,02,13,12,6.40
2011,03,02,13,13,6.60
2011,03,02,13,14,6.60
2011,03,02,13,15,6.60
2011,03,02,13,16,6.70
2011,03,02,13,17,6.70
2011,03,02,13,18,6.70
2011,03,02,13,19,6.70
2011,03,02,13,20,6.70
2011,03,02,13,21,6.70
2011,03,02,13,22,6.70
2011,03,02,13,23,6.60
2011,03,02,13,24,6.60
2011,03,02,13,25,6.60
2011,03,02,13,26,6.60
2011,03,02,13,27,6.60
2011,03,02,13,28,6.60
2011,03,02,13,29,6.60
2011,03,02,13,30,6.60
2011,03,02,13,31,6.60
2011,03,02,13,32,6.60
2011,03,02,13,33,6.70
2011,03,02,13,34,6.70
2011,03,02,13,35,6.70
2011,03,02,13,36,6.70
2011,03,02,13,37,6.70
2011,03,02,13,38,6.80
2011,03,02,13,39,6.80
2011,03,02,13,40,6.70
2011,03,02,13,41,6.70
2011,03,02,13,42,6.70
2011,03,02,13,43,6.70
2011,03,02,13,44,6.70
2011,03,02,13,45,6.60
2011,03,02,13,46,6.60
2011,03,02,13,47,6.50
2011,03,02,13,48,6.40
2011,03,02,13,49,6.40
2011,03,02,13,50,6.30
2011,03,02,13,51,6.20
2011,03,02,13,52,6.10
2011,03,02,13,53,6.00
2011,03,02,13,54,5.90
2011,03,02,13,55,5.80
2011,03,02,13,56,5.80
2011,03,02,13,57,5.70
2011,03,02,13,58,5.60
2011,03,02,13,59,5.60
2011,03,02,14,00,5.60
2011,03,02,14,01,5.50
2011,03,02,14,02,5.50
2011,03,02,14,03,5.50
2011,03,02,14,04,5.50
2011,03,02,14,05,5.50
2011,03,02,14,06,5.50
2011,03,02,14,07,5.50
2011,03,02,14,08,5.50
2011,03,02,14,09,5.50
2011,03,02,14,10,5.40
2011,03,02,14,11,5.40
2011,03,02,14,12,5.40
2011,03,02,14,13,5.40
2011,03,02,14,14,5.50
2011,03,02,14,15,5.50
2011,03,02,14,16,5.50
2011,03,02,14,17,5.50
2011,03,02,14,18,5.50
2011,03,02,14,19,5.40
2011,03,02,14,20,5.40
2011,03,02,14,21,5.40
2011,03,02,14,22,5.40
2011,03,02,14,23,5.30
2011,03,02,14,24,5.30
2011,03,02,14,25,5.30
2011,03,02,14,26,5.30
2011,03,02,14,27,5.20
2011,03,02,14,28,5.20
2011,03,02,14,29,5.20
2011,03,02,14,30,5.00
2011,03,02,14,31,4.80
2011,03,02,14,32,4.70
2011,03,02,14,33,4.60
2011,03,02,14,34,4.50
2011,03,02,14,35,4.40
2011,03,02,14,36,4.30
2011,03,02,14,37,4.20
2011,03,02,14,38,4.10
2011,03,02,14,39,4.10
2011,03,02,14,40,4.10
2011,03,02,14,41,4.00
2011,03,02,14,42,4.00
2011,03,02,14,43,4.00
2011,03,02,14,44,3.90
2011,03,02,14,45,3.90
2011,03,02,14,46,3.90
2011,03,02,14,47,3.90
2011,03,02,14,48,3.90
2011,03,02,14,49,3.90
2011,03,02,14,50,3.80
2011,03,02,14,51,3.80
2011,03,02,14,52,3.80
2011,03,02,14,53,3.80
2011,03,02,14,54,3.80
2011,03,02,14,55,3.90
2011,03,02,14,56,3.90
2011,03,02,14,57,3.90
2011,03,02,14,58,3.90
2011,03,02,14,59,4.00
2011,03,02,15,00,4.00
2011,03,02,15,01,4.00
2011,03,02,15,02,4.10
2011,03,02,15,03,4.10
2011,03,02,15,04,4.20
2011,03,02,15,05,4.20
2011,03,02,15,06,4.20
2011,03,02,15,07,4.20
2011,03,02,15,08,4.20
2011,03,02,15,09,4.30
2011,03,02,15,10,4.30
2011,03,02,15,11,4.40
2011,03,02,15,12,4.40
2011,03,02,15,13,4.50
2011,03,02,15,14,4.50
2011,03,02,15,15,4.60
2011,03,02,15,16,4.60
2011,03,02,15,17,4.60
2011,03,02,15,18,4.60
2011,03,02,15,19,4.60
2011,03,02,15,20,4.60
2011,03,02,15,21,4.60
2011,03,02,15,22,4.60
2011,03,02,15,23,4.70
2011,03,02,15,24,4.80
2011,03,02,15,25,4.80
2011,03,02,15,26,4.90
2011,03,02,15,27,4.90
2011,03,02,15,28,4.90
2011,03,02,15,29,4.90
2011,03,02,15,30,4.90
2011,03,02,15,31,4.80
2011,03,02,15,32,4.80
2011,03,02,15,33,4.80
2011,03,02,15,34,4.80
2011,03,02,15,35,4.80
2011,03,02,15,36,4.90
2011,03,02,15,37,4.90
2011,03,02,15,38,4.90
2011,03,02,15,39,4.90
2011,03,02,15,40,4.90
2011,03,02,15,41,4.90
2011,03,02,15,42,4.90
2011,03,02,15,43,4.90
2011,03,02,15,44,4.80
2011,03,02,15,45,4.80
2011,03,02,15,46,4.80
2011,03,02,15,47,4.80
2011,03,02,15,48,4.80
2011,03,02,15,49,4.90
2011,03,02,15,50,4.90
2011,03,02,15,51,4.90
2011,03,02,15,52,4.90
2011,03,02,15,53,4.90
2011,03,02,15,54,4.90
2011,03,02,15,55,4.80
2011,03,02,15,56,4.80
2011,03,02,15,57,4.80
2011,03,02,15,58,4.80
2011,03,02,15,59,4.70
2011,03,02,16,00,4.70
2011,03,02,16,01,4.80
2011,03,02,16,02,4.80
2011,03,02,16,03,4.90
2011,03,02,16,04,4.90
2011,03,02,16,05,4.80
2011,03,02,16,06,4.80
2011,03,02,16,07,4.70
2011,03,02,16,08,4.70
2011,03,02,16,09,4.70
2011,03,02,16,10,4.60
2011,03,02,16,11,4.60
2011,03,02,16,12,4.60
2011,03,02,16,13,4.60
2011,03,02,16,14,4.50
2011,03,02,16,15,4.50
2011,03,02,16,16,4.50
2011,03,02,16,17,4.40
2011,03,02,16,18,4.30
2011,03,02,16,19,4.30
2011,03,02,16,20,4.30
2011,03,02,16,21,4.30
2011,03,02,16,22,4.30
2011,03,02,16,23,4.20
2011,03,02,16,24,4.20
2011,03,02,16,25,4.20
2011,03,02,16,26,4.20
2011,03,02,16,27,4.20
2011,03,02,16,28,4.20
2011,03,02,16,29,4.10
2011,03,02,16,30,4.10
2011,03,02,16,31,4.00
2011,03,02,16,32,4.00
2011,03,02,16,33,4.00
2011,03,02,16,34,3.90
2011,03,02,16,35,3.90
2011,03,02,16,36,3.80
2011,03,02,16,37,3.80
2011,03,02,16,38,3.80
2011,03,02,16,39,3.80
2011,03,02,16,40,3.70
2011,03,02,16,41,3.70
2011,03,02,16,42,3.70
2011,03,02,16,43,3.70
2011,03,02,16,44,3.70
2011,03,02,16,45,3.60
2011,03,02,16,46,3.60
2011,03,02,16,47,3.60
2011,03,02,16,48,3.60
2011,03,02,16,49,3.50
2011,03,02,16,50,3.50
2011,03,02,16,51,3.50
2011,03,02,16,52,3.60
2011,03,02,16,53,3.60
2011,03,02,16,54,3.60
2011,03,02,16,55,3.50
2011,03,02,16,56,3.50
2011,03,02,16,57,3.50
2011,03,02,16,58,3.50
2011,03,02,16,59,3.50
2011,03,02,17,00,3.50
2011,03,02,17,01,3.40
2011,03,02,17,02,3.40
2011,03,02,17,03,3.40
2011,03,02,17,04,3.40
2011,03,02,17,05,3.30
2011,03,02,17,06,3.30
2011,03,02,17,07,3.30
2011,03,02,17,08,3.30
2011,03,02,17,09,3.30
2011,03,02,17,10,3.30
2011,03,02,17,11,3.30
2011,03,02,17,12,3.30
2011,03,02,17,13,3.30
2011,03,02,17,14,3.30
2011,03,02,17,15,3.30
2011,03,02,17,16,3.30
2011,03,02,17,17,3.20
2011,03,02,17,18,3.20
2011,03,02,17,19,3.20
2011,03,02,17,20,3.20
2011,03,02,17,21,3.20
2011,03,02,17,22,3.10
2011,03,02,17,23,3.10
2011,03,02,17,24,3.10
2011,03,02,17,25,3.10
2011,03,02,17,26,3.10
2011,03,02,17,27,3.10
2011,03,02,17,28,3.10
2011,03,02,17,29,3.10
2011,03,02,17,30,3.00
2011,03,02,17,31,2.90
2011,03,02,17,32,2.90
2011,03,02,17,33,2.90
2011,03,02,17,34,2.90
2011,03,02,17,35,2.90
2011,03,02,17,36,2.90
2011,03,02,17,37,2.90
2011,03,02,17,38,2.90
2011,03,02,17,39,2.90
2011,03,02,17,40,2.90
2011,03,02,17,41,2.90
2011,03,02,17,42,2.90
2011,03,02,17,43,2.90
2011,03,02,17,44,2.90
2011,03,02,17,45,3.00
2011,03,02,17,46,3.10
2011,03,02,17,47,3.10
2011,03,02,17,48,3.10
2011,03,02,17,49,3.10
2011,03,02,17,50,3.10
2011,03,02,17,51,3.00
2011,03,02,17,52,2.90
2011,03,02,17,53,2.90
2011,03,02,17,54,2.90
2011,03,02,17,55,2.90
2011,03,02,17,56,2.90
2011,03,02,17,57,2.90
2011,03,02,17,58,2.90
2011,03,02,17,59,2.90
2011,03,02,18,00,2.80
2011,03,02,18,01,2.80
2011,03,02,18,02,2.80
2011,03,02,18,03,2.80
2011,03,02,18,04,2.80
2011,03,02,18,05,2.80
2011,03,02,18,06,2.80
2011,03,02,18,07,2.80
2011,03,02,18,08,2.70
2011,03,02,18,09,2.70
2011,03,02,18,10,2.70
2011,03,02,18,11,2.70
2011,03,02,18,12,2.70
2011,03,02,18,13,2.70
2011,03,02,18,14,2.70
2011,03,02,18,15,2.70
2011,03,02,18,16,2.70
2011,03,02,18,17,2.60
2011,03,02,18,18,2.60
2011,03,02,18,19,2.60
2011,03,02,18,20,2.50
2011,03,02,18,21,2.50
2011,03,02,18,22,2.50
2011,03,02,18,23,2.40
2011,03,02,18,24,2.40
2011,03,02,18,25,2.40
2011,03,02,18,26,2.40
2011,03,02,18,27,2.30
2011,03,02,18,28,2.30
2011,03,02,18,29,2.30
2011,03,02,18,30,2.30
2011,03,02,18,31,2.20
2011,03,02,18,32,2.20
2011,03,02,18,33,2.20
2011,03,02,18,34,2.20
2011,03,02,18,35,2.20
2011,03,02,18,36,2.20
2011,03,02,18,37,2.20
2011,03,02,18,38,2.20
2011,03,02,18,39,2.20
2011,03,02,18,40,2.20
2011,03,02,18,41,2.20
2011,03,02,18,42,2.20
2011,03,02,18,43,2.20
2011,03,02,18,44,2.20
2011,03,02,18,45,2.20
2011,03,02,18,46,2.20
2011,03,02,18,47,2.20
2011,03,02,18,48,2.20
2011,03,02,18,49,2.20
2011,03,02,18,50,2.20
2011,03,02,18,51,2.20
2011,03,02,18,52,2.20
2011,03,02,18,53,2.20
2011,03,02,18,54,2.20
2011,03,02,18,55,2.20
2011,03,02,18,56,2.20
2011,03,02,18,57,2.30
2011,03,02,18,58,2.30
2011,03,02,18,59,2.30
2011,03,02,19,00,2.30
2011,03,02,19,01,2.40
2011,03,02,19,02,2.40
2011,03,02,19,03,2.40
2011,03,02,19,04,2.40
2011,03,02,19,05,2.40
2011,03,02,19,06,2.40
2011,03,02,19,07,2.30
2011,03,02,19,08,2.30
2011,03,02,19,09,2.30
2011,03,02,19,10,2.30
2011,03,02,19,11,2.30
2011,03,02,19,12,2.30
2011,03,02,19,13,2.30
2011,03,02,19,14,2.30
2011,03,02,19,15,2.30
2011,03,02,19,16,2.30
2011,03,02,19,17,2.30
2011,03,02,19,18,2.30
2011,03,02,19,19,2.30
2011,03,02,19,20,2.30
2011,03,02,19,21,2.30
2011,03,02,19,22,2.30
2011,03,02,19,23,2.40
2011,03,02,19,24,2.40
2011,03,02,19,25,2.50
2011,03,02,19,26,2.50
2011,03,02,19,27,2.50
2011,03,02,19,28,2.50
2011,03,02,19,29,2.50
2011,03,02,19,30,2.50
2011,03,02,19,31,2.50
2011,03,02,19,32,2.50
2011,03,02,19,33,2.50
2011,03,02,19,34,2.50
2011,03,02,19,35,2.50
2011,03,02,19,36,2.40
2011,03,02,19,37,2.40
2011,03,02,19,38,2.40
2011,03,02,19,39,2.40
2011,03,02,19,40,2.30
2011,03,02,19,41,2.30
2011,03,02,19,42,2.30
2011,03,02,19,43,2.30
2011,03,02,19,44,2.20
2011,03,02,19,45,2.20
2011,03,02,19,46,2.20
2011,03,02,19,47,2.20
2011,03,02,19,48,2.20
2011,03,02,19,49,2.20
2011,03,02,19,50,2.20
2011,03,02,19,51,2.20
2011,03,02,19,52,2.20
2011,03,02,19,53,2.20
2011,03,02,19,54,2.20
2011,03,02,19,55,2.20
2011,03,02,19,56,2.10
2011,03,02,19,57,2.10
2011,03,02,19,58,2.10
2011,03,02,19,59,2.10
2011,03,02,20,00,2.10
2011,03,02,20,01,2.10
2011,03,02,20,02,2.10
2011,03,02,20,03,2.10
2011,03,02,20,04,2.00
2011,03,02,20,05,2.00
2011,03,02,20,06,2.00
2011,03,02,20,07,2.00
2011,03,02,20,08,2.00
2011,03,02,20,09,2.00
2011,03,02,20,10,2.00
2011,03,02,20,11,2.00
2011,03,02,20,12,2.00
2011,03,02,20,13,2.00
2011,03,02,20,14,2.00
2011,03,02,20,15,2.00
2011,03,02,20,16,2.00
2011,03,02,20,17,2.00
2011,03,02,20,18,1.90
2011,03,02,20,19,1.90
2011,03,02,20,20,2.00
2011,03,02,20,21,2.00
2011,03,02,20,22,2.00
2011,03,02,20,23,2.00
2011,03,02,20,24,2.00
2011,03,02,20,25,2.00
2011,03,02,20,26,2.00
2011,03,02,20,27,2.00
2011,03,02,20,28,2.00
2011,03,02,20,29,2.00
2011,03,02,20,30,1.90
2011,03,02,20,31,1.90
2011,03,02,20,32,1.90
2011,03,02,20,33,1.90
2011,03,02,20,34,1.90
2011,03,02,20,35,1.90
2011,03,02,20,36,1.90
2011,03,02,20,37,1.80